QPF
0.00 0.00 0.00 0.01 0.00 0.00 0.00 0.02 0.01 0.01 0.00 0.00 0.02 0.03 0.01 0.02 0.01 0.02 0.02 0.01 0.01 0.01 0.01 0.02 0.02 0.03 0.02 0.01 0.00 0.02 0.02 0.03 0.06 0.04 0.00 0.00 0.00 0.01 0.01 0.00 0.00 0.00 0.00 0.00 0.00 0.00 0.00
0.00 0.00 0.00 0.00 0.00 0.00 0.00 0.03 0.00 0.00 0.00 0.01 0.03 0.03 0.01 0.02 0.02 0.01 0.02 0.01 0.01 0.03 0.03 0.05 0.06 0.05 0.01 0.01 0.00 0.01 0.04 0.02 0.05 0.05 0.00 0.00 0.00 0.00 0.01 0.00 0.00 0.00 0.00 0.00 0.00 0.00 0.00
0.00 0.00 0.00 0.00 0.00 0.00 0.01 0.01 0.00 0.01 0.01 0.02 0.03 0.03 0.03 0.02 0.02 0.02 0.02 0.02 0.01 0.02 0.04 0.03 0.09 0.05 0.02 0.00 0.00 0.01 0.02 0.01 0.01 0.03 0.00 0.00 0.00 0.01 0.00 0.00 0.00 0.00 0.00 0.00 0.00 0.00 0.00
0.00 0.00 0.00 0.00 0.00 0.00 0.01 0.00 0.01 0.01 0.01 0.02 0.03 0.03 0.05 0.06 0.04 0.01 0.01 0.01 0.00 0.01 0.04 0.02 0.04 0.07 0.02 0.00 0.00 0.00 0.02 0.02 0.02 0.04 0.00 0.02 0.01 0.01 0.00 0.00 0.00 0.00 0.00 0.00 0.00 0.00 0.00
0.00 0.00 0.00 0.00 0.01 0.00 0.00 0.00 0.01 0.01 0.02 0.03 0.04 0.03 0.05 0.07 0.05 0.00 0.00 0.00 0.00 0.00 0.00 0.02 0.06 0.03 0.00 0.00 0.00 0.00 0.01 0.02 0.03 0.04 0.02 0.09 0.15 0.04 0.01 0.01 0.00 0.00 0.00 0.00 0.00 0.00 0.00
0.00 0.00 0.00 0.00 0.00 0.00 0.00 0.01 0.01 0.01 0.01 0.03 0.02 0.02 0.04 0.06 0.06 0.00 0.00 0.00 0.00 0.00 0.01 0.06 0.07 0.03 0.01 0.02 0.02 0.03 0.02 0.03 0.08 0.04 0.08 0.14 0.17 0.10 0.03 0.01 0.00 0.00 0.00 0.00 0.00 0.00 0.00
0.00 0.00 0.00 0.00 0.00 0.00 0.00 0.01 0.01 0.01 0.02 0.03 0.01 0.01 0.03 0.05 0.05 0.00 0.00 0.00 0.00 0.03 0.02 0.03 0.01 0.02 0.05 0.06 0.08 0.05 0.03 0.06 0.12 0.03 0.03 0.08 0.06 0.03 0.00 0.00 0.00 0.00 0.00 0.00 0.00 0.00 0.00
0.00 0.00 0.00 0.00 0.00 0.00 0.00 0.00 0.00 0.01 0.01 0.02 0.01 0.00 0.02 0.03 0.01 0.00 0.00 0.00 0.00 0.01 0.01 0.00 0.00 0.00 0.00 0.01 0.03 0.04 0.02 0.08 0.06 0.02 0.03 0.04 0.01 0.01 0.01 0.00 0.00 0.00 0.00 0.00 0.00 0.00 0.00
0.00 0.00 0.00 0.00 0.00 0.00 0.00 0.00 0.00 0.00 0.01 0.01 0.01 0.00 0.03 0.02 0.00 0.00 0.00 0.00 0.00 0.00 0.02 0.01 0.01 0.00 0.00 0.01 0.02 0.01 0.01 0.05 0.03 0.01 0.01 0.00 0.00 0.01 0.02 0.00 0.00 0.00 0.00 0.00 0.00 0.00 0.00
0.00 0.00 0.00 0.00 0.00 0.00 0.00 0.00 0.00 0.00 0.00 0.01 0.00 0.00 0.00 0.00 0.00 0.00 0.00 0.00 0.00 0.00 0.02 0.00 0.00 0.00 0.01 0.01 0.02 0.00 0.01 0.02 0.02 0.01 0.01 0.00 0.01 0.01 0.01 0.01 0.00 0.00 0.00 0.00 0.00 0.00 0.00
0.00 0.00 0.00 0.00 0.00 0.00 0.00 0.00 0.00 0.00 0.00 0.00 0.00 0.00 0.00 0.00 0.00 0.00 0.00 0.00 0.00 0.00 0.01 0.00 0.00 0.00 0.01 0.03 0.01 0.01 0.02 0.02 0.00 0.00 0.00 0.00 0.01 0.02 0.01 0.00 0.00 0.00 0.00 0.00 0.00 0.00 0.00
0.00 0.00 0.00 0.00 0.00 0.00 0.00 0.00 0.00 0.00 0.00 0.00 0.00 0.00 0.00 0.00 0.00 0.00 0.00 0.00 0.00 0.00 0.00 0.00 0.00 0.01 0.01 0.01 0.01 0.01 0.03 0.01 0.00 0.00 0.00 0.00 0.00 0.01 0.01 0.00 0.01 0.00 0.00 0.00 0.00 0.00 0.00
0.00 0.00 0.00 0.00 0.00 0.00 0.00 0.00 0.00 0.00 0.00 0.00 0.00 0.00 0.00 0.00 0.00 0.00 0.00 0.00 0.00 0.00 0.00 0.00 0.00 0.01 0.01 0.01 0.01 0.01 0.01 0.01 0.00 0.00 0.00 0.00 0.00 0.00 0.00 0.00 0.00 0.00 0.00 0.00 0.00 0.00 0.00
0.00 0.00 0.00 0.00 0.00 0.00 0.00 0.00 0.00 0.00 0.00 0.00 0.00 0.00 0.00 0.00 0.00 0.00 0.00 0.00 0.00 0.00 0.00 0.00 0.00 0.01 0.00 0.01 0.02 0.00 0.00 0.00 0.00 0.00 0.00 0.00 0.00 0.00 0.00 0.00 0.00 0.00 0.01 0.01 0.00 0.00 0.00
0.00 0.00 0.00 0.00 0.00 0.00 0.00 0.00 0.00 0.00 0.00 0.00 0.00 0.00 0.00 0.00 0.00 0.00 0.00 0.00 0.00 0.00 0.00 0.00 0.00 0.00 0.00 0.00 0.01 0.00 0.00 0.00 0.00 0.00 0.00 0.00 0.00 0.00 0.00 0.00 0.00 0.00 0.00 0.00 0.00 0.00 0.00
0.00 0.00 0.00 0.00 0.00 0.00 0.00 0.00 0.00 0.00 0.00 0.00 0.00 0.00 0.00 0.00 0.00 0.00 0.00 0.00 0.00 0.00 0.00 0.00 0.00 0.00 0.00 0.00 0.00 0.00 0.00 0.00 0.00 0.00 0.00 0.00 0.00 0.00 0.00 0.00 0.00 0.00 0.00 0.00 0.00 0.00 0.00
0.00 0.00 0.00 0.00 0.00 0.00 0.00 0.00 0.00 0.00 0.00 0.00 0.00 0.00 0.00 0.00 0.00 0.00 0.00 0.00 0.00 0.00 0.00 0.00 0.00 0.00 0.00 0.00 0.00 0.00 0.00 0.00 0.00 0.00 0.00 0.00 0.00 0.00 0.00 0.00 0.00 0.00 0.00 0.00 0.00 0.00 0.00
0.00 0.00 0.00 0.00 0.00 0.00 0.00 0.00 0.00 0.00 0.00 0.00 0.00 0.00 0.00 0.00 0.00 0.00 0.00 0.00 0.00 0.00 0.00 0.00 0.00 0.00 0.00 0.00 0.00 0.00 0.00 0.00 0.00 0.00 0.00 0.00 0.00 0.00 0.00 0.00 0.00 0.00 0.00 0.00 0.00 0.00 0.00
0.00 0.00 0.00 0.00 0.00 0.00 0.00 0.00 0.00 0.00 0.00 0.00 0.00 0.00 0.00 0.00 0.00 0.00 0.00 0.00 0.00 0.00 0.00 0.00 0.00 0.00 0.00 0.00 0.00 0.00 0.00 0.00 0.00 0.00 0.00 0.00 0.00 0.00 0.00 0.00 0.00 0.00 0.00 0.00 0.00 0.00 0.00
0.00 0.00 0.00 0.00 0.00 0.00 0.00 0.00 0.00 0.00 0.00 0.00 0.00 0.00 0.00 0.00 0.00 0.00 0.00 0.00 0.00 0.00 0.00 0.00 0.00 0.00 0.00 0.00 0.00 0.00 0.00 0.00 0.00 0.00 0.00 0.00 0.00 0.00 0.00 0.00 0.00 0.00 0.00 0.00 0.00 0.00 0.00
0.00 0.00 0.00 0.00 0.00 0.00 0.00 0.00 0.00 0.00 0.00 0.00 0.00 0.00 0.00 0.00 0.00 0.00 0.00 0.00 0.00 0.00 0.00 0.00 0.00 0.00 0.00 0.00 0.00 0.00 0.00 0.00 0.00 0.00 0.00 0.00 0.00 0.00 0.00 0.00 0.00 0.00 0.00 0.00 0.00 0.00 0.00
0.00 0.00 0.00 0.00 0.00 0.00 0.00 0.00 0.00 0.00 0.00 0.00 0.00 0.00 0.00 0.00 0.00 0.00 0.00 0.00 0.00 0.00 0.00 0.00 0.00 0.00 0.00 0.00 0.00 0.00 0.00 0.00 0.00 0.00 0.00 0.00 0.00 0.00 0.00 0.00 0.00 0.00 0.00 0.00 0.00 0.00 0.00
0.00 0.00 0.00 0.00 0.00 0.00 0.00 0.00 0.00 0.00 0.00 0.00 0.00 0.00 0.00 0.00 0.00 0.00 0.00 0.00 0.00 0.00 0.00 0.00 0.00 0.00 0.00 0.00 0.00 0.00 0.00 0.00 0.00 0.00 0.00 0.00 0.00 0.00 0.00 0.00 0.00 0.00 0.00 0.00 0.00 0.00 0.00
0.00 0.00 0.00 0.00 0.00 0.00 0.00 0.00 0.00 0.00 0.00 0.00 0.00 0.00 0.00 0.00 0.00 0.00 0.00 0.00 0.00 0.00 0.00 0.00 0.00 0.00 0.00 0.00 0.00 0.00 0.00 0.00 0.00 0.00 0.00 0.00 0.00 0.00 0.00 0.00 0.00 0.00 0.00 0.00 0.00 0.00 0.00
0.00 0.00 0.00 0.00 0.00 0.00 0.01 0.00 0.00 0.00 0.00 0.00 0.00 0.00 0.00 0.00 0.00 0.00 0.00 0.00 0.00 0.00 0.00 0.00 0.00 0.00 0.00 0.00 0.00 0.00 0.00 0.00 0.00 0.00 0.00 0.00 0.00 0.00 0.00 0.00 0.00 0.00 0.00 0.00 0.00 0.00 0.00
0.00 0.00 0.00 0.00 0.00 0.01 0.01 0.00 0.01 0.00 0.00 0.00 0.00 0.00 0.01 0.00 0.00 0.00 0.00 0.00 0.00 0.01 0.00 0.00 0.00 0.00 0.00 0.00 0.00 0.00 0.00 0.00 0.00 0.00 0.00 0.00 0.00 0.00 0.00 0.00 0.00 0.00 0.00 0.00 0.00 0.00 0.00
0.00 0.00 0.00 0.00 0.00 0.00 0.00 0.00 0.01 0.00 0.00 0.00 0.00 0.00 0.00 0.01 0.00 0.00 0.00 0.00 0.00 0.00 0.01 0.00 0.00 0.00 0.00 0.00 0.01 0.00 0.00 0.00 0.00 0.00 0.00 0.00 0.00 0.00 0.00 0.00 0.00 0.00 0.00 0.00 0.01 0.00 0.00
0.00 0.01 0.00 0.00 0.00 0.00 0.00 0.00 0.01 0.01 0.00 0.01 0.01 0.00 0.00 0.00 0.00 0.00 0.00 0.00 0.00 0.00 0.01 0.01 0.01 0.00 0.00 0.01 0.01 0.00 0.00 0.00 0.00 0.00 0.00 0.00 0.00 0.00 0.00 0.00 0.00 0.00 0.00 0.00 0.00 0.00 0.00
0.00 0.00 0.00 0.00 0.00 0.00 0.00 0.00 0.02 0.01 0.00 0.01 0.01 0.00 0.01 0.01 0.00 0.00 0.00 0.00 0.00 0.00 0.00 0.00 0.01 0.00 0.00 0.01 0.00 0.00 0.00 0.00 0.00 0.00 0.00 0.00 0.00 0.00 0.00 0.00 0.00 0.00 0.00 0.00 0.00 0.00 0.00
MSLP
1022.00 1021.72 1021.18 1020.75 1020.32 1019.84 1019.15 1018.53 1018.17 1017.74 1017.16 1016.54 1015.96 1015.56 1015.20 1014.82 1014.53 1014.31 1014.14 1013.93 1013.79 1013.61 1013.46 1013.46 1013.44 1013.48 1013.65 1012.52 1010.31 1009.82 1010.26 1009.72 1010.51 1011.11 1011.04 1011.24 1011.06 1011.17 1010.84 1010.80 1010.86 1010.40 1009.43 1009.80 1010.02 1010.48 1010.47
1021.98 1021.59 1021.20 1020.76 1020.21 1019.64 1019.10 1018.35 1017.80 1017.45 1016.94 1016.27 1015.67 1015.13 1014.78 1014.42 1014.05 1013.87 1013.73 1013.60 1013.48 1013.42 1013.26 1013.26 1013.35 1013.46 1013.01 1011.38 1009.70 1009.74 1010.65 1010.46 1010.45 1010.79 1010.64 1010.57 1010.43 1010.66 1010.58 1010.64 1010.45 1010.36 1010.38 1010.39 1010.35 1010.83 1011.00
1022.10 1021.64 1021.17 1020.69 1020.22 1019.62 1019.12 1018.58 1017.94 1017.21 1016.49 1015.99 1015.35 1014.71 1014.23 1013.89 1013.58 1013.38 1013.37 1013.23 1013.11 1013.13 1013.11 1013.11 1013.21 1013.08 1012.20 1010.36 1009.71 1010.20 1010.86 1010.92 1010.17 1010.39 1010.05 1010.24 1010.42 1010.51 1010.54 1010.84 1010.70 1010.94 1010.77 1010.83 1010.51 1010.68 1010.94
1022.07 1021.73 1021.19 1020.63 1019.99 1019.62 1019.08 1018.52 1017.80 1017.09 1016.38 1015.65 1014.93 1014.25 1013.51 1013.18 1012.98 1012.92 1013.02 1012.85 1012.85 1012.84 1012.85 1012.83 1012.82 1012.66 1011.31 1010.14 1010.16 1010.18 1011.15 1011.03 1010.30 1009.82 1009.98 1010.47 1010.62 1010.42 1010.79 1011.11 1011.29 1011.14 1010.84 1010.54 1010.31 1010.69 1010.72
1022.08 1021.70 1021.14 1020.61 1020.14 1019.46 1018.99 1018.57 1017.81 1017.03 1016.27 1015.45 1014.72 1013.88 1013.14 1012.68 1012.46 1012.58 1012.67 1012.64 1012.58 1012.53 1012.41 1012.43 1012.59 1012.08 1010.19 1009.44 1009.70 1009.39 1009.96 1009.52 1009.15 1009.93 1010.07 1010.81 1011.27 1010.52 1011.03 1010.94 1011.17 1010.89 1009.84 1009.62 1009.51 1009.90 1010.51
1022.16 1021.72 1021.25 1020.62 1019.94 1019.44 1019.00 1018.43 1017.84 1017.18 1016.38 1015.46 1014.59 1013.71 1012.68 1012.05 1012.11 1012.38 1012.49 1012.48 1012.19 1012.29 1012.03 1011.88 1012.02 1011.99 1009.94 1009.33 1009.00 1009.15 1009.30 1008.95 1009.10 1009.44 1010.37 1011.29 1011.52 1010.98 1010.82 1010.29 1009.34 1009.07 1009.11 1008.77 1008.95 1009.95 1010.01
1022.18 1021.68 1021.07 1020.59 1020.10 1019.43 1018.86 1018.34 1017.85 1017.29 1016.51 1015.59 1014.69 1013.74 1012.52 1011.95 1012.22 1012.42 1012.43 1011.96 1012.23 1011.90 1011.50 1010.97 1010.88 1010.33 1010.40 1010.83 1010.25 1009.74 1009.20 1009.27 1009.01 1009.63 1010.13 1011.09 1011.21 1010.37 1009.53 1009.05 1008.99 1008.66 1008.76 1008.33 1008.90 1009.90 1010.14
1021.97 1021.55 1021.32 1020.76 1020.18 1019.63 1019.11 1018.53 1017.94 1017.25 1016.60 1015.82 1014.88 1014.12 1013.38 1012.71 1012.72 1012.76 1012.38 1011.89 1012.41 1012.81 1011.62 1011.12 1011.04 1011.10 1011.12 1012.00 1010.75 1010.05 1009.32 1009.32 1009.45 1009.50 1010.30 1011.15 1011.05 1010.64 1010.15 1009.60 1009.08 1008.86 1008.48 1008.86 1009.65 1010.38 1010.74
1022.16 1021.71 1021.30 1020.78 1020.25 1019.84 1019.24 1018.61 1018.04 1017.42 1016.67 1016.11 1015.15 1014.51 1014.06 1013.56 1013.15 1012.69 1012.57 1012.88 1013.12 1012.75 1012.00 1011.02 1011.02 1011.26 1011.61 1011.97 1010.36 1009.01 1009.60 1009.55 1009.51 1009.50 1010.24 1010.42 1011.02 1011.12 1010.73 1009.77 1009.32 1009.18 1009.18 1009.11 1009.73 1010.78 1010.92
1022.15 1021.84 1021.32 1020.77 1020.23 1019.82 1019.14 1018.63 1018.02 1017.38 1016.86 1016.25 1015.53 1014.74 1014.36 1013.74 1013.88 1013.05 1012.75 1012.96 1013.08 1012.61 1011.88 1011.49 1011.45 1011.84 1012.02 1011.00 1010.36 1009.98 1009.99 1010.17 1009.47 1009.91 1011.13 1011.72 1011.49 1011.71 1010.87 1009.97 1009.56 1009.27 1009.65 1009.72 1010.44 1010.64 1010.17
1022.21 1021.82 1021.35 1020.88 1020.36 1019.63 1019.17 1018.65 1018.02 1017.60 1016.76 1016.35 1015.61 1014.85 1014.61 1014.00 1013.42 1013.08 1013.02 1012.92 1013.01 1012.63 1012.19 1012.75 1012.35 1012.35 1011.50 1010.90 1010.76 1010.67 1010.33 1009.94 1010.25 1010.82 1011.51 1012.37 1012.22 1011.93 1011.16 1010.20 1010.02 1009.76 1010.54 1010.81 1010.95 1010.72 1010.53
1022.05 1021.78 1021.36 1020.77 1019.99 1019.62 1019.27 1018.57 1017.90 1017.07 1016.90 1016.13 1015.55 1014.79 1014.53 1013.93 1013.41 1013.52 1012.99 1012.98 1013.06 1012.57 1012.23 1012.17 1011.79 1011.15 1010.36 1009.62 1010.21 1010.70 1010.66 1010.22 1010.46 1011.51 1012.48 1012.95 1013.18 1012.73 1011.86 1011.66 1010.74 1011.40 1011.56 1011.75 1011.64 1011.38 1010.81
1022.15 1021.73 1021.23 1020.74 1020.23 1019.65 1019.25 1018.51 1017.88 1016.96 1016.45 1015.95 1015.24 1014.60 1014.33 1013.97 1013.42 1013.44 1013.18 1012.69 1012.90 1012.40 1012.52 1012.23 1011.27 1009.97 1008.77 1008.58 1009.09 1010.20 1010.09 1010.31 1010.52 1011.86 1012.79 1013.73 1014.07 1013.60 1013.14 1012.71 1012.68 1011.76 1011.67 1011.93 1012.06 1011.65 1010.44
1021.95 1021.68 1021.26 1020.66 1020.23 1019.77 1019.02 1018.66 1017.81 1017.10 1016.19 1015.65 1014.79 1014.45 1013.71 1013.50 1013.61 1013.49 1013.01 1012.57 1012.59 1013.36 1012.60 1012.08 1011.15 1009.92 1009.54 1009.68 1009.89 1010.18 1010.03 1009.91 1010.09 1010.36 1011.66 1012.70 1014.39 1014.36 1014.20 1013.51 1013.16 1012.37 1011.53 1010.83 1010.35 1010.19 1010.21
1021.89 1021.66 1021.32 1020.81 1020.10 1019.74 1019.16 1018.39 1018.12 1017.17 1016.07 1015.14 1014.28 1013.51 1013.50 1012.99 1013.39 1013.41 1012.86 1012.08 1013.20 1013.52 1012.79 1011.62 1010.25 1009.96 1009.93 1009.52 1009.66 1010.01 1009.33 1009.41 1009.62 1009.59 1010.69 1011.84 1013.40 1014.38 1014.19 1013.91 1013.27 1012.98 1012.08 1011.69 1010.84 1010.62 1010.19
1021.88 1021.53 1021.19 1020.77 1020.09 1019.47 1019.01 1018.62 1017.74 1016.97 1015.87 1014.88 1013.99 1013.43 1012.95 1013.27 1013.30 1012.83 1012.13 1012.57 1012.89 1013.02 1012.40 1011.24 1009.90 1009.21 1008.76 1008.91 1008.90 1008.90 1008.55 1009.29 1009.56 1009.88 1010.04 1010.91 1012.35 1013.62 1013.80 1013.74 1013.41 1012.27 1011.90 1011.82 1011.45 1010.55 1009.61
1021.84 1021.45 1021.07 1020.75 1020.21 1019.91 1019.22 1018.72 1017.92 1016.96 1015.98 1014.75 1013.75 1012.95 1012.96 1013.06 1013.17 1011.95 1012.19 1012.37 1012.37 1011.90 1011.60 1010.71 1009.53 1008.92 1008.50 1008.40 1008.27 1008.25 1008.73 1009.45 1009.35 1009.70 1009.71 1010.06 1010.89 1013.17 1012.88 1012.47 1011.96 1012.09 1011.70 1011.63 1011.35 1010.88 1009.70
1021.79 1021.45 1021.12 1020.93 1020.55 1020.07 1019.25 1018.57 1018.32 1017.28 1016.30 1015.05 1014.10 1012.86 1012.85 1012.74 1012.20 1011.48 1011.54 1011.82 1011.94 1011.14 1010.95 1010.32 1009.52 1008.79 1008.30 1008.36 1008.33 1008.40 1008.56 1008.91 1009.63 1009.52 1009.56 1010.38 1011.04 1012.28 1012.65 1012.86 1012.53 1011.91 1011.30 1011.24 1011.32 1011.29 1010.90
1021.88 1021.57 1021.27 1020.94 1020.54 1019.90 1019.49 1018.81 1018.04 1017.49 1016.82 1016.08 1014.67 1012.99 1012.57 1012.46 1011.75 1011.46 1011.64 1011.29 1011.06 1010.60 1010.27 1009.75 1009.23 1009.07 1008.88 1008.48 1008.62 1008.89 1009.19 1009.84 1009.93 1009.74 1009.75 1010.30 1011.17 1012.18 1012.84 1013.06 1012.86 1012.53 1012.08 1011.88 1012.21 1012.06 1011.31
1021.75 1021.60 1021.38 1021.13 1020.57 1020.18 1019.63 1019.16 1018.39 1017.59 1016.75 1016.39 1014.76 1013.54 1012.39 1011.89 1011.99 1011.30 1011.04 1010.81 1010.42 1010.57 1009.99 1009.73 1009.33 1009.06 1008.77 1008.66 1008.75 1009.07 1009.53 1010.14 1010.28 1010.20 1010.54 1010.47 1010.95 1011.44 1011.65 1012.09 1012.14 1012.54 1012.13 1012.38 1012.59 1012.42 1011.01
1021.75 1021.67 1021.42 1021.14 1020.79 1020.39 1020.04 1019.50 1018.84 1017.97 1016.90 1016.21 1015.27 1015.05 1014.93 1013.14 1011.86 1011.78 1011.23 1010.73 1010.21 1009.99 1009.90 1009.54 1009.17 1008.93 1008.65 1008.62 1008.75 1008.97 1009.59 1010.20 1010.51 1010.74 1010.75 1010.74 1011.47 1012.03 1012.26 1012.40 1012.71 1012.58 1012.36 1012.48 1012.59 1012.01 1011.15
1021.85 1021.58 1021.35 1021.02 1020.80 1020.41 1019.81 1019.53 1019.13 1018.47 1017.40 1015.84 1016.39 1016.35 1015.73 1014.52 1013.23 1012.16 1011.35 1010.59 1010.36 1010.19 1009.99 1009.45 1009.15 1009.13 1009.06 1008.77 1008.88 1008.86 1009.28 1009.51 1009.69 1010.66 1010.67 1011.22 1011.92 1012.36 1012.57 1012.52 1012.63 1012.53 1012.23 1012.13 1012.19 1011.91 1011.31
1021.53 1021.52 1021.26 1021.00 1020.83 1020.46 1020.16 1019.68 1019.25 1018.94 1017.96 1017.10 1017.21 1017.24 1016.89 1014.98 1013.38 1012.48 1011.78 1011.11 1010.65 1010.61 1010.42 1010.09 1009.44 1009.27 1009.34 1009.77 1009.70 1009.39 1009.56 1009.50 1009.83 1010.11 1010.55 1011.17 1011.92 1012.58 1012.47 1012.79 1012.46 1011.72 1010.74 1010.98 1011.07 1010.95 1010.83
1021.56 1021.45 1021.27 1020.95 1020.81 1020.35 1020.05 1019.63 1019.46 1019.17 1019.09 1018.92 1018.46 1018.48 1017.44 1015.57 1014.37 1013.24 1012.76 1012.28 1011.46 1010.96 1010.55 1010.39 1010.11 1009.66 1010.54 1010.31 1010.08 1009.84 1009.95 1010.17 1010.35 1010.61 1010.60 1011.01 1011.60 1012.03 1012.07 1012.12 1011.34 1010.27 1010.06 1009.91 1010.14 1010.11 1010.27
1021.31 1021.03 1021.00 1021.00 1020.86 1020.60 1020.19 1019.98 1019.58 1019.30 1019.16 1018.75 1018.95 1018.83 1018.13 1016.94 1015.38 1014.20 1013.44 1012.96 1012.04 1011.55 1011.09 1010.84 1010.91 1010.58 1010.74 1010.46 1010.19 1010.19 1010.41 1010.51 1010.72 1010.90 1010.92 1010.96 1011.17 1011.56 1011.55 1010.88 1009.86 1009.24 1009.76 1009.78 1009.65 1009.38 1009.66
1021.07 1021.00 1020.91 1020.97 1020.92 1020.50 1020.36 1020.08 1019.74 1019.45 1019.28 1018.69 1018.87 1018.96 1018.56 1017.89 1015.52 1015.43 1014.64 1013.86 1012.77 1011.69 1011.55 1011.53 1011.73 1011.41 1011.24 1010.72 1010.32 1010.20 1010.19 1010.13 1010.56 1011.16 1011.42 1011.45 1011.36 1011.64 1011.63 1010.82 1009.50 1009.18 1009.40 1009.43 1009.49 1009.19 1009.13
1020.78 1020.91 1020.84 1020.55 1020.72 1020.52 1020.51 1020.16 1019.79 1019.62 1019.47 1019.05 1018.48 1018.87 1018.75 1018.15 1016.35 1016.26 1015.50 1014.89 1013.72 1012.77 1011.82 1011.54 1011.69 1011.61 1011.42 1010.96 1010.58 1010.29 1010.05 1010.11 1010.14 1010.33 1010.93 1011.24 1011.37 1011.35 1011.20 1010.66 1009.49 1009.02 1009.53 1009.60 1009.82 1010.49 1009.79
1020.41 1020.56 1020.45 1020.48 1020.64 1020.27 1020.12 1020.07 1019.48 1019.49 1019.59 1019.39 1018.48 1018.59 1018.79 1018.29 1017.00 1016.67 1016.30 1016.14 1015.44 1013.89 1012.84 1011.82 1011.76 1011.47 1011.26 1010.83 1010.52 1010.17 1009.97 1009.95 1009.91 1009.90 1010.23 1010.41 1010.59 1010.56 1010.72 1010.50 1009.68 1009.32 1009.69 1009.90 1010.41 1010.18 1010.31
1020.42 1020.24 1020.26 1020.29 1020.09 1020.13 1019.83 1019.69 1019.39 1019.08 1019.01 1019.15 1018.89 1018.58 1018.74 1018.71 1017.00 1016.45 1016.13 1015.96 1015.95 1015.77 1015.30 1012.52 1011.42 1010.49 1010.18 1010.18 1010.43 1010.37 1010.20 1010.10 1009.67 1009.64 1010.17 1010.10 1009.77 1009.73 1009.74 1009.40 1009.35 1009.44 1009.60 1010.14 1010.48 1010.65 1011.01
Thickness
5572 5562 5553 5544 5535 5528 5523 5517 5509 5503 5497 5492 5486 5476 5466 5454 5442 5430 5420 5415 5412 5411 5414 5418 5425 5431 5438 5457 5500 5516 5526 5540 5546 5553 5560 5564 5571 5578 5585 5597 5603 5609 5630 5632 5636 5642 5646
5568 5559 5549 5539 5532 5524 5516 5511 5505 5498 5490 5484 5475 5464 5452 5439 5428 5420 5415 5412 5410 5409 5412 5415 5418 5421 5431 5447 5483 5498 5508 5523 5537 5545 5555 5566 5574 5583 5587 5590 5597 5611 5611 5618 5628 5631 5636
5561 5554 5544 5535 5527 5518 5511 5503 5498 5493 5486 5476 5466 5453 5440 5428 5419 5416 5412 5409 5408 5408 5410 5411 5413 5416 5425 5451 5466 5480 5495 5509 5533 5541 5554 5564 5570 5569 5582 5579 5595 5597 5595 5608 5620 5628 5629
5558 5548 5540 5531 5524 5512 5506 5500 5494 5488 5480 5470 5459 5445 5434 5423 5416 5413 5410 5408 5408 5408 5409 5410 5411 5413 5421 5438 5448 5473 5487 5502 5525 5543 5551 5556 5562 5568 5568 5577 5579 5582 5590 5588 5614 5621 5629
5554 5545 5536 5528 5517 5510 5503 5495 5489 5483 5475 5465 5452 5439 5428 5419 5415 5412 5409 5407 5408 5409 5410 5410 5410 5412 5428 5441 5448 5475 5493 5508 5529 5533 5544 5548 5549 5559 5561 5563 5563 5572 5583 5597 5609 5625 5623
5548 5540 5530 5524 5516 5507 5499 5492 5486 5478 5471 5461 5448 5434 5426 5419 5416 5412 5408 5407 5408 5408 5410 5411 5411 5410 5432 5442 5454 5471 5489 5508 5523 5531 5531 5534 5539 5543 5550 5557 5563 5584 5591 5609 5607 5612 5621
5545 5538 5530 5520 5511 5504 5498 5491 5484 5476 5468 5459 5447 5433 5427 5423 5416 5411 5408 5411 5411 5410 5412 5419 5421 5429 5427 5429 5445 5470 5496 5508 5523 5529 5532 5534 5535 5543 5566 5585 5593 5592 5596 5607 5612 5609 5611
5546 5536 5523 5515 5508 5500 5492 5488 5483 5477 5469 5459 5449 5434 5425 5420 5412 5408 5408 5411 5404 5398 5406 5413 5417 5421 5426 5424 5451 5476 5501 5511 5519 5532 5536 5532 5532 5553 5567 5573 5580 5584 5593 5595 5599 5599 5600
5541 5532 5521 5514 5506 5497 5491 5488 5484 5477 5471 5461 5453 5440 5428 5419 5413 5410 5407 5401 5396 5397 5401 5418 5423 5428 5433 5437 5467 5491 5503 5516 5528 5539 5540 5545 5544 5544 5549 5566 5571 5578 5581 5590 5593 5590 5596
5538 5529 5519 5513 5506 5497 5493 5487 5484 5480 5474 5467 5459 5450 5439 5431 5421 5420 5418 5414 5410 5415 5423 5436 5433 5440 5442 5459 5476 5494 5505 5508 5525 5537 5534 5530 5543 5540 5548 5562 5572 5569 5584 5587 5583 5586 5592
5535 5527 5518 5511 5503 5501 5494 5488 5486 5481 5480 5474 5468 5463 5453 5448 5445 5442 5440 5436 5429 5433 5457 5440 5444 5448 5461 5476 5489 5497 5508 5520 5523 5519 5531 5529 5535 5540 5553 5563 5571 5570 5575 5576 5580 5584 5589
5536 5526 5517 5511 5509 5501 5493 5491 5489 5490 5482 5482 5478 5475 5468 5466 5464 5457 5455 5450 5447 5456 5471 5457 5462 5469 5487 5498 5502 5502 5507 5520 5527 5518 5518 5520 5520 5533 5550 5543 5563 5560 5560 5563 5570 5574 5573
5532 5524 5517 5510 5506 5501 5494 5493 5491 5494 5490 5487 5487 5485 5480 5475 5477 5469 5468 5471 5474 5479 5460 5471 5474 5494 5514 5518 5515 5506 5509 5518 5524 5515 5511 5499 5503 5523 5530 5532 5539 5556 5557 5546 5549 5555 5580
5532 5523 5515 5511 5505 5500 5498 5492 5494 5494 5496 5494 5496 5492 5493 5488 5481 5478 5480 5486 5507 5479 5475 5480 5489 5508 5507 5512 5512 5511 5519 5527 5535 5536 5521 5528 5519 5504 5511 5530 5532 5546 5562 5568 5567 5572 5583
5530 5521 5513 5508 5507 5501 5497 5497 5490 5495 5500 5502 5503 5505 5499 5500 5492 5488 5491 5513 5489 5477 5480 5492 5519 5512 5509 5521 5520 5514 5530 5532 5536 5541 5529 5526 5519 5504 5516 5523 5537 5532 5546 5558 5563 5565 5576
5527 5520 5513 5507 5505 5504 5500 5492 5495 5495 5501 5506 5509 5509 5510 5501 5499 5503 5511 5498 5492 5487 5496 5511 5521 5529 5528 5526 5532 5534 5543 5536 5533 5536 5541 5536 5523 5520 5522 5527 5532 5545 5555 5549 5551 5559 5575
5524 5518 5512 5506 5502 5497 5495 5491 5492 5495 5500 5507 5513 5519 5511 5506 5503 5520 5506 5505 5503 5513 5513 5521 5530 5533 5537 5537 5542 5543 5538 5532 5538 5536 5544 5547 5544 5519 5534 5539 5546 5545 5550 5552 5559 5562 5582
5521 5515 5508 5500 5494 5492 5495 5494 5486 5490 5495 5503 5511 5518 5511 5510 5518 5525 5522 5518 5507 5522 5521 5523 5533 5538 5540 5539 5539 5541 5540 5542 5537 5543 5543 5541 5539 5527 5530 5533 5540 5550 5560 5563 5557 5556 5558
5515 5509 5503 5497 5492 5491 5487 5488 5486 5485 5487 5492 5500 5519 5514 5511 5516 5521 5518 5522 5524 5528 5528 5531 5533 5535 5537 5539 5534 5536 5536 5532 5535 5540 5542 5542 5532 5521 5522 5531 5535 5539 5549 5555 5549 5544 5547
5511 5505 5498 5490 5488 5483 5483 5479 5479 5480 5484 5486 5505 5506 5517 5520 5517 5524 5524 5523 5529 5526 5531 5531 5533 5536 5537 5537 5539 5532 5530 5528 5530 5534 5529 5540 5538 5538 5544 5537 5543 5533 5545 5546 5538 5539 5560
5505 5498 5493 5485 5481 5478 5472 5473 5471 5472 5479 5485 5495 5490 5487 5505 5520 5516 5521 5525 5528 5530 5531 5534 5534 5536 5539 5535 5536 5534 5531 5525 5527 5523 5530 5537 5523 5523 5533 5535 5524 5534 5540 5539 5525 5545 5550
5497 5493 5489 5482 5475 5472 5472 5467 5465 5465 5468 5483 5475 5474 5481 5489 5506 5512 5515 5525 5524 5525 5526 5532 5534 5534 5536 5537 5537 5535 5533 5533 5533 5526 5530 5528 5514 5517 5519 5530 5530 5528 5538 5541 5539 5544 5551
5494 5487 5482 5476 5469 5466 5462 5461 5459 5455 5459 5466 5464 5464 5464 5488 5507 5512 5513 5519 5522 5520 5521 5524 5532 5534 5534 5528 5529 5533 5534 5538 5536 5533 5530 5527 5519 5516 5527 5521 5527 5534 5546 5546 5548 5549 5551
5487 5479 5474 5470 5464 5462 5458 5456 5452 5449 5444 5442 5447 5445 5455 5481 5492 5503 5503 5506 5512 5517 5519 5520 5524 5529 5519 5523 5528 5530 5529 5528 5528 5527 5533 5527 5524 5524 5527 5526 5532 5548 5552 5557 5554 5556 5556
5481 5476 5470 5462 5455 5451 5450 5446 5443 5441 5438 5438 5435 5437 5443 5454 5477 5487 5495 5497 5508 5510 5514 5515 5513 5518 5518 5520 5521 5520 5519 5520 5520 5522 5526 5530 5529 5523 5526 5536 5552 5556 5547 5548 5550 5557 5558
5475 5469 5462 5455 5448 5445 5440 5437 5436 5434 5430 5434 5429 5429 5434 5437 5474 5465 5473 5483 5498 5510 5508 5505 5502 5507 5509 5516 5518 5513 5514 5522 5517 5514 5516 5519 5526 5521 5520 5527 5542 5552 5551 5555 5555 5554 5562
5469 5462 5455 5450 5441 5439 5433 5430 5429 5427 5422 5424 5429 5423 5426 5429 5452 5450 5460 5464 5483 5496 5504 5504 5501 5501 5503 5507 5509 5512 5517 5524 5519 5520 5515 5514 5516 5516 5520 5524 5541 5553 5547 5550 5542 5540 5552
5463 5456 5449 5443 5434 5433 5429 5423 5425 5421 5414 5412 5420 5420 5419 5423 5434 5437 5442 5438 5447 5478 5493 5498 5497 5498 5500 5504 5508 5514 5518 5520 5522 5526 5521 5520 5518 5521 5521 5517 5524 5546 5542 5539 5538 5545 5545
5453 5449 5442 5434 5432 5426 5424 5420 5416 5415 5413 5408 5410 5413 5412 5410 5426 5430 5432 5437 5438 5440 5446 5486 5498 5507 5510 5508 5507 5509 5511 5515 5523 5519 5521 5518 5528 5529 5531 5533 5538 5540 5540 5537 5536 5537 5535